www.pogodaiklimat.ru
ПОГОДА в Перривилле
Время
и дата
01:35 06.02
01:55 06.02
02:15 06.02
02:35 06.02
02:55 06.02
03:15 06.02
03:35 06.02
03:55 06.02
04:15 06.02
04:35 06.02
04:55 06.02
05:15 06.02
05:35 06.02
05:55 06.02
06:15 06.02
06:35 06.02
06:55 06.02
07:15 06.02
07:35 06.02
07:55 06.02
08:15 06.02
08:35 06.02
08:55 06.02
09:15 06.02
09:35 06.02
09:55 06.02
10:15 06.02
10:35 06.02
10:55 06.02
11:15 06.02
11:35 06.02
11:55 06.02
12:15 06.02
12:35 06.02
12:55 06.02
13:15 06.02
13:35 06.02
13:55 06.02
14:15 06.02
14:35 06.02
14:55 06.02
15:15 06.02
15:35 06.02
15:55 06.02
16:15 06.02
16:35 06.02
16:55 06.02
17:15 06.02
Ветер
(напр.,м/с)
Видим. Явления Облачность Т
(С)
Тd
(С)
f
(%)
Тe
(С)
Тes
(С)
Комфортность P
(гПа)
Po
(гПа)
Тmin
(С)
Tmax
(С)
R
(мм)
R24
(мм)
S
(см)
штиль 0 16 км ясно -1.2 -2.1 94 -3 -3 1008.1
штиль 0 16 км ясно -2.0 -2.6 96 -3 -3 1008.4
штиль 0 16 км ясно -2.4 -2.6 99 -4 -4 1008.4
штиль 0 16 км ясно -2.5 -2.5 100 -4 -4 1008.4
ЮЗ 2 16 км ясно -2.4 -2.4 100 -7 -7 1008.4
штиль 0 16 км ясно -2.7 -2.9 99 -4 -4 1008.4
штиль 0 16 км ясно -3.6 -3.6 100 -5 -5 1008.4
штиль 0 16 км ясно -3.6 -3.7 99 -5 -5 1008.1
З 2 16 км ясно -3.7 -3.8 99 -8 -8 1008.4
штиль 0 16 км ясно -3.3 -3.5 99 -5 -5 1008.4
ЮЗ 2 16 км ясно -3.8 -3.9 99 -8 -8 1008.7
ЮЗ 2 16 км ясно -3.6 -3.6 100 -8 -8 1008.7
штиль 0 16 км ясно -3.5 -3.6 99 -5 -5 1008.7
штиль 0 16 км ясно -4.0 -4.0 100 -5 -5 1008.7 -4.2 -0.2
штиль 0 16 км 8/8 60 м -3.6 -3.6 100 -5 -5 1008.7
ЮЗ 2 16 км 5/5 60 м -3.7 -4.0 98 -8 -8 1009.1
штиль 0 16 км ясно -4.6 -4.7 99 -6 -6 1009.1
штиль 0 16 км ясно -4.0 -4.1 99 -5 -5 1009.4
штиль 0 16 км ясно -3.6 -4.0 97 -5 -5 1009.4
штиль 0 16 км ясно -2.0 -2.7 95 -3 -3 1009.4
штиль 0 16 км ясно -1.0 -1.1 99 -2 -1 1009.4
ЮВ 2 16 км ясно +0.5 +0.3 99 -3 -2 1009.4
ЮВ 3 16 км ясно +2.6 +1.9 95 -2 -1 1009.1
ЮВ 3 16 км ясно +5.5 +3.5 87 +2 +5 1009.1
ЮВ 4 16 км ясно +6.8 +3.7 81 +3 +5 1008.7
ЮВ 4 16 км ясно +7.7 +4.0 77 +4 +7 1008.7
ЮВ 5 16 км ясно +9.1 +4.6 73 +6 +9 1008.4
В 5 16 км ясно +10.5 +5.5 71 +8 +11 1008.4
ЮВ 5 16 км ясно +11.3 +5.7 68 +9 +12 1007.7
ЮВ 6 16 км ясно +12.0 +6.2 68 +9 +12 1007.7
ЮВ 5 16 км ясно +12.9 +6.9 67 +11 +15 1007.4
Ю 5 16 км ясно +14.0 +6.1 59 +12 +16 1006.7 -4.6 +14.0
Ю 6 16 км ясно +15.0 +6.9 58 +13 +17 1006.1
Ю 10
{12}
16 км ясно +15.5 +5.9 53 +13 +14 1005.4
Ю 8
{12}
16 км ясно +15.5 +5.2 50 +14 +15 1005.0
ЮВ 10
{12}
16 км ясно +16.0 +5.2 49 +14 +14 1004.4
Ю 10
{13}
16 км ясно +15.6 +4.6 48 +14 +14 1003.7
Ю 9
{11}
16 км ясно +16.3 +4.8 46 +15 +15 1003.4
Ю 8
{14}
16 км ясно +16.1 +4.9 47 +15 +16 1003.4
Ю 8
{11}
16 км ясно +15.9 +5.0 48 +14 +15 1003.0
Ю 12
{15}
16 км ясно +15.7 +3.9 45 +13 +13 1002.7
Ю 11
{16}
16 км ясно +15.4 +4.1 47 +13 +13 1002.7
Ю 10
{14}
16 км ясно +15.3 +5.0 50 +13 +13 1002.4
Ю 9
{13}
16 км ясно +15.0 +5.5 53 +13 +13 1002.4
Ю 7
{12}
16 км ясно +15.0 +5.2 52 +13 +14 1002.0
Ю 10
{13}
16 км ясно +14.8 +5.7 54 +12 +12 1001.7
Ю 6
{11}
16 км ясно +14.2 +6.0 58 +12 +13 1001.7
Ю 7
{9}
16 км ясно +13.8 +6.0 59 +12 +12 1001.4
Местоположение метеостанции Perryville Regional Airport: широта 37.8687 долгота -89.8621 высота над уровнем моря 112 м.
В архиве по умолчанию представлена погода в Перривилле за последние 1-2 суток. Обновление информации о фактической погоде в базе происходит ежечасно! Архивные данные за месяц целиком и за предыдущие месяцы Вы можете получить, выбрав интересующий диапазон дат из раскрывающегося списка и нажав кнопку "Ввод!".
Внимание! Архив погоды МЕТАР в базе сайта по станциям, не включенным в климатический монитор, хранится не более 60 дней. Нет смысла пытаться выбрать более раннюю дату.
*Определитесь, кто Вы:
Внимание! Время в таблицах - местное (без учета летнего времени). Для получения всемирного времени необходимо вычесть поправку, которая равна -6 ч.
Смотрите также архив погоды в соседних городах и на ближайших метеорологических станциях:
Партнеры нашего сайта:      
Пояснения к столбцам:
  • Ветер - указаны скорость ветра в м/с - средняя за 10 мин, порывы в срок и между сроками (в фигурных скобках) и направление, откуда дует ветер: С - северный,
  • СВ - северо-восточный, В - восточный, ЮВ - юго-восточный, Ю - южный, ЮЗ - юго-западный, З - западный, СЗ - северо-западный.
  • Видимость - горизонтальная дальность видимости в метрах или километрах. При видимости от 1 до 10 км при отсутствии осадков обычно наблюдается дымка, при ухудшении видимости до 1 км и менее - туман. В сухую погоду видимость может ухудшаться дымом, пылью или мглою.
  • Явления - указаны атмосферные явления, наблюдавшиеся в срок или в последний час перед сроком; фигурными скобками обозначены явления, наблюдавшиеся между сроками (за 1-3 часа до срока); квадратными скобками обозначены град или гололедные отложения с указанием их диаметра в мм.
  • Облачность - указаны через наклонную черту общая и нижняя облачность в баллах и высота нижней границы облаков в метрах; квадратными скобками обозначены формы облаков: Ci - перистые, Cs - перисто-слоистые, Cc - перисто-кучевые, Ac - высококучевые, As - высокослоистые, Sc - слоисто-кучевые, Ns - слоисто-дождевые, Cu - кучевые, Cb - кучево-дождевые. Подробнее классификацию облаков см. в Атласе облаков (PDF).
  • T - Температура воздуха - температура, измеренная на высоте 2 м над землей.
  • Td - Температура точки росы - температура, при понижении до которой содержащийся в воздухе водяной пар достигнет насыщения.
  • f - Относительная влажность воздуха - влажноcть воздуха, измеренная на высоте 2 м над землей.
  • Te - Эффективная температура - температура, которую ощущает одетый по сезону человек в тени. Характеристика душности погоды. При расчете учитывается влияние влажности воздуха и скорости ветра на теплоощущения человека.
  • Tes - Эффективная температура на солнце - температура, которую ощущает человек, с поправкой на солнечный нагрев. Характеристика знойности погоды. Зависит от высоты солнца над горизонтом, облачности и скорости ветра. Ночью, в пасмурную погоду, а также при ветре 12 м/с и более поправка равна нулю.
  • P - Атмосферное давление - приведенное к уровню моря атмосферное давление.
  • Po - Атмосферное давление - измеренное на уровне метеостанции атмосферное давление.
  • Tmin - Минимальная температура - минимум температуры воздуха на высоте 2 м над землей.
  • Tmax - Максимальная температура - максимум температуры воздуха на высоте 2 м над землей.
  • R - Количество осадков - Количество выпавших осадков за период времени, мм. При наведении курсора мыши на число - период времени, за который выпало указанное количество осадков.
  • R24 - Количество осадков - Количество выпавших осадков за 24 часа, мм.
  • S - Снежный покров - Высота снежного покрова, см. При наведении курсора мыши на число - состояние снежного покрова и степень покрытия местности в баллах.